Groton, CT

1:45 PM EST on November 23, 2017 (GMT -0500)
Groton-New London

Weather History for KGON - May, 2013

Change the Weather History Date:

Friday, May 10, 2013

  Actual Average Record
Temperature  
Mean Temperature 60 °F -  
Max Temperature 72 °F 65 °F 91 °F (1979)
Min Temperature 50 °F 46 °F 34 °F (1966)
Degree Days  
Heating Degree Days 5    
Growing Degree Days 10 (Base 50)    
Moisture  
Dew Point 52 °F    
Average Humidity 86    
Maximum Humidity 100    
Minimum Humidity 55    
Precipitation  
Precipitation 0.00 in - - ()
Sea Level Pressure  
Sea Level Pressure 29.95 in    
Wind  
Wind Speed 3 mph (SSW)    
Max Wind Speed 13 mph    
Max Gust Speed -    
Visibility 4 miles    
Events Fog    
Averages and records for this station are not official NWS values.
T = Trace of Precipitation, MM = Missing Value Source: NWS Daily Summary

Daily Weather History Graph

Daily Weather History Graph

Search for Another Location

Airport or City:

Trip Planner

Search our weather history database for the weather conditions in past years. The results will help you decide how hot, cold, wet, or windy it might be!

Date:

Astronomy

May. 10, 2013 Rise Set
Actual Time 5:34 AM EDT 7:55 PM EDT
Civil Twilight 5:03 AM EDT 8:26 PM EDT
Nautical Twilight 4:25 AM EDT 9:04 PM EDT
Astronomical Twilight 3:42 AM EDT 9:47 PM EDT
Moon 5:56 AM EDT (5/10) 8:42 PM EDT (5/10)
Length of Visible Light 15h 22m
Length of Day
14h 20m
New Moon, 0% of the Moon is Illuminated
May 10
New Moon
May 18
First Quarter
May 25
Full
May 31
Last Quarter
Jun 8
New

Hourly Weather History & Observations

Time (EDT) Temp. Dew Point Humidity Pressure Visibility Wind Dir Wind Speed Gust Speed Precip Events Conditions
12:06 AM 55.4 °F 53.6 °F 94% 29.93 in 5.0 mi West 4.6 mph - N/A   Scattered Clouds
12:56 AM 55.0 °F 54.0 °F 96% 29.93 in 4.0 mi Calm Calm - N/A   Clear
1:12 AM 55.4 °F 53.6 °F 94% 29.93 in 2.5 mi Calm Calm - N/A   Partly Cloudy
1:38 AM 53.6 °F 51.8 °F 94% 29.92 in 0.8 mi Calm Calm - N/A   Mostly Cloudy
1:47 AM 51.8 °F 51.8 °F 100% 29.92 in 0.8 mi Calm Calm - N/A   Mostly Cloudy
1:56 AM 52.0 °F 51.1 °F 97% 29.92 in 0.2 mi Calm Calm - N/A Fog Fog
2:06 AM 53.6 °F 51.8 °F 94% 29.92 in 0.8 mi Calm Calm - N/A   Mostly Cloudy
2:23 AM 53.6 °F 51.8 °F 94% 29.92 in 2.0 mi Calm Calm - N/A   Partly Cloudy
2:30 AM 51.8 °F 51.8 °F 100% 29.91 in 1.0 mi Calm Calm - N/A   Mist
2:40 AM 51.8 °F 50.0 °F 94% 29.91 in 0.5 mi Calm Calm - N/A Fog Fog
2:56 AM 52.0 °F 50.0 °F 93% 29.92 in 0.2 mi Calm Calm - N/A Fog Fog
3:56 AM 52.0 °F 50.0 °F 93% 29.94 in 0.2 mi Calm Calm - N/A Fog Fog
4:34 AM 51.8 °F 48.2 °F 88% 29.93 in 0.2 mi SSW 3.5 mph - N/A Fog Fog
4:56 AM 50.0 °F 48.0 °F 93% 29.94 in 0.2 mi Calm Calm - N/A Fog Fog
5:15 AM 50.0 °F 48.2 °F 94% 29.94 in 0.2 mi Calm Calm - N/A Fog Fog
5:56 AM 51.1 °F 48.9 °F 92% 29.95 in 0.2 mi SSW 3.5 mph - N/A Fog Fog
6:07 AM 50.0 °F 48.2 °F 94% 29.95 in 0.2 mi Calm Calm - N/A Fog Fog
6:23 AM 51.8 °F 50.0 °F 94% 29.96 in 0.2 mi Calm Calm - N/A Fog Fog
6:56 AM 52.0 °F 51.1 °F 97% 29.96 in 0.2 mi Calm Calm - N/A Fog Fog
7:42 AM 53.6 °F 51.8 °F 94% 29.97 in 0.5 mi South 3.5 mph - N/A Fog Fog
7:56 AM 54.0 °F 53.1 °F 97% 29.97 in 1.2 mi SSW 4.6 mph - N/A   Mostly Cloudy
8:05 AM 55.4 °F 53.6 °F 94% 29.97 in 3.0 mi WSW 5.8 mph - N/A   Scattered Clouds
8:56 AM 57.9 °F 54.0 °F 87% 29.98 in 8.0 mi SSW 9.2 mph - N/A   Clear
9:56 AM 61.0 °F 55.0 °F 81% 29.97 in 9.0 mi SSW 5.8 mph - N/A   Clear
10:56 AM 64.9 °F 55.0 °F 70% 29.97 in 10.0 mi WSW 10.4 mph - N/A   Clear
11:56 AM 66.0 °F 54.0 °F 65% 29.96 in 10.0 mi SW 12.7 mph - N/A   Clear
12:56 PM 66.0 °F 54.0 °F 65% 29.95 in 9.0 mi SW 8.1 mph - N/A   Clear
1:56 PM 70.0 °F 53.1 °F 55% 29.96 in 10.0 mi SW 10.4 mph - N/A   Clear
2:56 PM 64.0 °F 52.0 °F 65% 29.96 in 7.0 mi SSW 8.1 mph - N/A   Clear
3:56 PM 66.9 °F 52.0 °F 59% 29.95 in 9.0 mi SW 5.8 mph - N/A   Clear
4:56 PM 64.9 °F 53.1 °F 65% 29.95 in 9.0 mi South 5.8 mph - N/A   Clear
5:56 PM 62.1 °F 52.0 °F 70% 29.95 in 7.0 mi SSW 8.1 mph - N/A   Clear
6:56 PM 61.0 °F 52.0 °F 72% 29.95 in 8.0 mi SSW 5.8 mph - N/A   Clear
7:56 PM 57.9 °F 52.0 °F 81% 29.96 in 7.0 mi SSW 4.6 mph - N/A   Clear
8:56 PM 57.0 °F 51.1 °F 81% 29.96 in 8.0 mi SSE 4.6 mph - N/A   Clear
9:56 PM 57.0 °F 52.0 °F 83% 29.96 in 7.0 mi Calm Calm - N/A   Clear
10:56 PM 55.9 °F 52.0 °F 87% 29.96 in 6.0 mi Calm Calm - N/A   Clear
11:56 PM 54.0 °F 51.1 °F 90% 29.94 in 5.0 mi SSE 4.6 mph - N/A   Clear